When you browse on this site, cookies collect data to enhance your experience and personalize the content and advertising you see.
Visit our Privacy Policy to learn more. By continuing to use the site, you agree to this use of cookies and data.
  • In Germany
  • List of Countries
  • For 7 days
  • Water Temperature
  • Weather Map
  • Weather Widgets
  • user-avatar
    Login

    Hourly Weather Tromsø

    Today, 31 March, Tuesday

    Time Temperature Precipitation Wind Pressure Humidity
    00:00 -11°C° 0.4 mm 5 mps 742 mmHg 90%
    01:00 -9°C° 0 mm 4 mps 739 mmHg 93%
    02:00 -10°C° 1.2 mm 5 mps 737 mmHg 93%
    03:00 -10°C° 1.2 mm 5 mps 735 mmHg 94%
    04:00 -10°C° 1.2 mm 5 mps 733 mmHg 94%
    05:00 -10°C° 1.4 mm 5 mps 732 mmHg 94%
    06:00 -10°C° 1.4 mm 5 mps 730 mmHg 95%
    07:00 -8°C° 0 mm 4 mps 729 mmHg 95%
    08:00 -6°C° 1.9 mm 5 mps 729 mmHg 96%
    09:00 -5°C° 1.9 mm 6 mps 729 mmHg 97%
    10:00 -3°C° 1.9 mm 7 mps 728 mmHg 97%
    11:00 -3°C° 1.1 mm 7 mps 728 mmHg 98%
    12:00 -3°C° 1.1 mm 7 mps 728 mmHg 98%
    13:00 -2°C° 0 mm 7 mps 729 mmHg 96%
    14:00 -2°C° 0.8 mm 6 mps 729 mmHg 97%
    15:00 -1°C° 0.8 mm 5 mps 729 mmHg 97%
    16:00 -1°C° 0.8 mm 4 mps 729 mmHg 98%
    17:00 -2°C° 0.8 mm 4 mps 730 mmHg 97%
    18:00 -3°C° 0.8 mm 4 mps 731 mmHg 97%
    19:00 -4°C° 0.8 mm 5 mps 731 mmHg 96%
    20:00 -5°C° 0.4 mm 5 mps 733 mmHg 96%
    21:00 -6°C° 0.4 mm 5 mps 734 mmHg 95%
    22:00 -7°C° 0.4 mm 5 mps 735 mmHg 94%
    23:00 -7°C° 0.3 mm 5 mps 736 mmHg 94%

    Tomorrow, 1 April, Wednesday

    Time Temperature Precipitation Wind Pressure Humidity
    00:00 -7°C° 0.3 mm 4 mps 737 mmHg 94%
    01:00 -7°C° 0.3 mm 4 mps 738 mmHg 94%
    02:00 -8°C° 0.2 mm 4 mps 739 mmHg 94%
    03:00 -7°C° 0.2 mm 3 mps 739 mmHg 93%
    04:00 -8°C° 0.2 mm 3 mps 739 mmHg 92%
    05:00 -7°C° 0.1 mm 3 mps 740 mmHg 91%
    06:00 -6°C° 0.1 mm 2 mps 740 mmHg 89%
    07:00 -6°C° 0.1 mm 2 mps 740 mmHg 87%
    08:00 -5°C° 0.1 mm 2 mps 740 mmHg 84%
    09:00 -4°C° 0.1 mm 2 mps 740 mmHg 82%
    10:00 -3°C° 0.1 mm 2 mps 740 mmHg 80%
    11:00 -4°C° 0.2 mm 3 mps 740 mmHg 78%
    12:00 -4°C° 0.2 mm 3 mps 739 mmHg 77%
    13:00 -4°C° 0.2 mm 3 mps 739 mmHg 76%
    14:00 -3°C° 0.1 mm 2 mps 739 mmHg 76%
    15:00 -3°C° 0.1 mm 2 mps 738 mmHg 77%
    16:00 -1°C° 0.1 mm 1 mps 738 mmHg 77%
    17:00 -3°C° 0 mm 1 mps 737 mmHg 79%
    18:00 -6°C° 0 mm 1 mps 737 mmHg 81%
    19:00 -8°C° 0 mm 1 mps 736 mmHg 82%
    20:00 -9°C° 0 mm 1 mps 736 mmHg 83%
    21:00 -10°C° 0 mm 2 mps 735 mmHg 83%
    22:00 -12°C° 0 mm 2 mps 734 mmHg 83%
    23:00 -12°C° 0 mm 2 mps 734 mmHg 82%

    Day after tomorrow, 2 April, Thursday

    Time Temperature Precipitation Wind Pressure Humidity
    00:00 -13°C° 0 mm 2 mps 733 mmHg 81%
    01:00 -14°C° 0 mm 3 mps 733 mmHg 80%
    02:00 -15°C° 0 mm 3 mps 732 mmHg 80%
    03:00 -15°C° 0 mm 3 mps 731 mmHg 81%
    04:00 -15°C° 0 mm 3 mps 730 mmHg 81%
    05:00 -14°C° 0 mm 3 mps 729 mmHg 82%
    06:00 -14°C° 0 mm 3 mps 729 mmHg 83%
    07:00 -13°C° 0 mm 3 mps 728 mmHg 83%
    08:00 -12°C° 0 mm 3 mps 727 mmHg 82%
    09:00 -10°C° 0 mm 3 mps 727 mmHg 80%
    10:00 -9°C° 0 mm 3 mps 726 mmHg 78%
    11:00 -8°C° 0 mm 3 mps 726 mmHg 78%
    12:00 -7°C° 0 mm 2 mps 726 mmHg 78%
    13:00 -6°C° 0 mm 2 mps 725 mmHg 77%
    14:00 -6°C° 0 mm 2 mps 725 mmHg 80%
    15:00 -7°C° 0 mm 2 mps 725 mmHg 82%
    16:00 -7°C° 0 mm 2 mps 724 mmHg 85%
    17:00 -8°C° 0 mm 2 mps 724 mmHg 86%
    18:00 -7°C° 0 mm 1 mps 724 mmHg 87%
    19:00 -8°C° 0 mm 1 mps 724 mmHg 88%
    20:00 -9°C° 0 mm 1 mps 724 mmHg 88%
    21:00 -9°C° 0 mm 1 mps 724 mmHg 89%
    22:00 -9°C° 0 mm 1 mps 723 mmHg 89%
    23:00 -10°C° 0 mm 1 mps 724 mmHg 89%

    3 April, Friday

    Time Temperature Precipitation Wind Pressure Humidity
    00:00 -10°C° 0 mm 1 mps 724 mmHg 90%
    01:00 -10°C° 0 mm 1 mps 724 mmHg 90%
    02:00 -10°C° 0.1 mm 1 mps 724 mmHg 91%
    03:00 -10°C° 0.1 mm 1 mps 724 mmHg 93%
    04:00 -10°C° 0.1 mm 1 mps 724 mmHg 94%
    05:00 -9°C° 0.1 mm 1 mps 724 mmHg 94%
    06:00 -9°C° 0.1 mm 1 mps 725 mmHg 94%
    07:00 -8°C° 0.1 mm 1 mps 725 mmHg 93%
    08:00 -8°C° 0.1 mm 1 mps 725 mmHg 91%
    09:00 -7°C° 0.1 mm 1 mps 726 mmHg 89%
    10:00 -6°C° 0.1 mm 1 mps 726 mmHg 87%
    11:00 -6°C° 0.1 mm 1 mps 727 mmHg 85%
    12:00 -4°C° 0.1 mm 1 mps 727 mmHg 83%
    13:00 -4°C° 0.1 mm 1 mps 727 mmHg 81%
    14:00 -3°C° 0 mm 1 mps 728 mmHg 81%
    15:00 -3°C° 0 mm 1 mps 728 mmHg 81%
    16:00 -3°C° 0 mm 1 mps 729 mmHg 81%
    17:00 -4°C° 0 mm 1 mps 729 mmHg 84%
    18:00 -7°C° 0 mm 2 mps 729 mmHg 88%
    19:00 -8°C° 0 mm 2 mps 730 mmHg 91%
    20:00 -9°C° 0.3 mm 3 mps 730 mmHg 91%
    21:00 -9°C° 0.3 mm 4 mps 731 mmHg 92%
    22:00 -9°C° 0.3 mm 4 mps 731 mmHg 93%
    23:00 -9°C° 0.3 mm 4 mps 732 mmHg 92%

    4 April, Saturday

    Time Temperature Precipitation Wind Pressure Humidity
    00:00 -8°C° 0.3 mm 4 mps 732 mmHg 92%
    01:00 -8°C° 0.3 mm 4 mps 733 mmHg 92%
    02:00 -8°C° 0.9 mm 5 mps 733 mmHg 93%
    03:00 -9°C° 0.9 mm 6 mps 734 mmHg 94%
    04:00 -10°C° 0.9 mm 8 mps 735 mmHg 95%
    05:00 -8°C° 1.5 mm 8 mps 736 mmHg 94%
    06:00 -9°C° 1.5 mm 9 mps 737 mmHg 92%
    07:00 -9°C° 1.5 mm 9 mps 738 mmHg 91%
    08:00 -8°C° 0.4 mm 8 mps 739 mmHg 84%
    09:00 -8°C° 0.4 mm 8 mps 740 mmHg 77%
    10:00 -7°C° 0.4 mm 7 mps 741 mmHg 71%
    11:00 -6°C° 0.1 mm 6 mps 742 mmHg 71%
    12:00 -6°C° 0.1 mm 6 mps 743 mmHg 71%
    13:00 -6°C° 0.1 mm 5 mps 744 mmHg 71%
    14:00 -6°C° 0.1 mm 5 mps 745 mmHg 72%
    15:00 -5°C° 0.1 mm 4 mps 746 mmHg 73%
    16:00 -5°C° 0.1 mm 4 mps 746 mmHg 74%
    17:00 -7°C° 0.1 mm 3 mps 747 mmHg 73%
    18:00 -8°C° 0.1 mm 3 mps 748 mmHg 73%
    19:00 -10°C° 0.1 mm 3 mps 748 mmHg 73%
    20:00 -10°C° 0 mm 3 mps 749 mmHg 75%
    21:00 -10°C° 0 mm 3 mps 750 mmHg 77%
    22:00 -10°C° 0 mm 3 mps 750 mmHg 78%
    23:00 -12°C° 0 mm 3 mps 751 mmHg 81%

    5 April, Sunday

    Time Temperature Precipitation Wind Pressure Humidity
    00:00 -13°C° 0 mm 3 mps 751 mmHg 83%
    01:00 -13°C° 0 mm 3 mps 752 mmHg 85%
    02:00 -14°C° 0 mm 3 mps 752 mmHg 85%
    03:00 -14°C° 0 mm 3 mps 752 mmHg 84%
    04:00 -15°C° 0 mm 3 mps 752 mmHg 84%
    05:00 -14°C° 0 mm 3 mps 751 mmHg 82%
    06:00 -13°C° 0 mm 3 mps 751 mmHg 81%
    07:00 -12°C° 0 mm 3 mps 750 mmHg 80%
    08:00 -11°C° 0 mm 4 mps 749 mmHg 77%
    09:00 -10°C° 0 mm 4 mps 749 mmHg 75%
    10:00 -10°C° 0 mm 5 mps 748 mmHg 73%
    11:00 -8°C° 0 mm 5 mps 747 mmHg 73%
    12:00 -7°C° 0 mm 5 mps 746 mmHg 74%
    13:00 -8°C° 0 mm 6 mps 745 mmHg 75%
    14:00 -6°C° 0 mm 6 mps 744 mmHg 77%
    15:00 -6°C° 0 mm 5 mps 743 mmHg 78%
    16:00 -5°C° 0 mm 5 mps 742 mmHg 80%
    17:00 -5°C° 0 mm 5 mps 741 mmHg 81%
    18:00 -6°C° 0 mm 5 mps 741 mmHg 82%
    19:00 -6°C° 0 mm 5 mps 740 mmHg 84%
    20:00 -5°C° 0.2 mm 5 mps 739 mmHg 87%
    21:00 -5°C° 0.2 mm 5 mps 738 mmHg 89%
    22:00 -4°C° 0.2 mm 5 mps 737 mmHg 92%
    23:00 -2°C° 0.4 mm 5 mps 737 mmHg 93%
    Show more